Skip Page Navigation
NASA JPL Caltech
NASA Logo - Jet Propulsion Laboratory + View the NASA Portal
+ Center for Near-Earth Object Studies
JPL Home Earth Solar System Stars & Galaxies Technology
JPL Solar System Dynamics
BODIES ORBITS EPHEMERIDES TOOLS PHYSICAL DATA DISCOVERY FAQ SITE MAP
JPL Small-Body Database Browser
Search: [ help ]  
362107 (2009 CQ25)
Classification: Main-belt Asteroid          SPK-ID: 2362107
Ephemeris | Orbit Diagram | Orbital Elements | Mission Design | Physical Parameters | Discovery Circumstances | Close-Approach Data ]

[ hide orbit diagram ]

For accurate long-term ephemerides, please instead use our Horizons system.This orbit viewer was implemented using two-body methods, and hence should not be used for determining accurate long-term trajectories (over several years or decades) or planetary encounter circumstances.


Orbital Elements at Epoch 2459396.5 (2021-Jul-01.0) TDB
Reference: JPL 16 (heliocentric ecliptic J2000)
 Element Value Uncertainty (1-sigma)   Units 
e .2040396912420749 6.6398e-08  
a 2.292932637364722 2.1292e-08 au
q 1.825083369997948 1.5507e-07 au
i 5.403422564618067 7.0061e-06 deg
node 348.8579555074514 4.8088e-05 deg
peri 25.00698572344458 5.007e-05 deg
M 320.5170037217025 2.0163e-05 deg
tp 2459535.589060329081
(2021-Nov-17.08906033)
7.2502e-05 TDB
period 1268.193056209162
3.47
1.7665e-05
4.836e-08
d
yr
n .2838684522339993 3.954e-09 deg/d
Q 2.760781904731497 2.5637e-08 au
  Orbit Determination Parameters
   # obs. used (total)      190  
   data-arc span      5651 days (15.47 yr)  
   first obs. used      2004-12-01  
   last obs. used      2020-05-22  
   planetary ephem.      DE441  
   SB-pert. ephem.      SB441-N16  
   condition code      0  
   norm. resid. RMS      .54029  
   source      ORB  
   producer      Otto Matic  
   solution date      2021-Apr-14 09:38:16  

Additional Information
 Earth MOID = .826234 au 
 Jupiter MOID = 2.71429 au 
 T_jup = 3.563 
[ show covariance matrix ]

Ephemeris | Orbit Diagram | Orbital Elements | Mission Design | Physical Parameters | Discovery Circumstances | Close-Approach Data ]

Physical Parameter Table
Parameter Symbol Value Units Sigma Reference Notes
absolute magnitude H 17.34   n/a E2021B25  

362107 (2009 CQ25)          Discovered 2009-Feb-01 by Spacewatch at Kitt Peak
Reference: Last Updated: 2013-04-29

[ show close-approach data ]
Alternate Designations
 2009 CQ25 = 2004 XL147 = 2004 YH37 = 2007 PC14 
Ephemeris | Orbit Diagram | Orbital Elements | Mission Design | Physical Parameters | Discovery Circumstances | Close-Approach Data ]
ABOUT SSD CREDITS/AWARDS PRIVACY/COPYRIGHT GLOSSARY LINKS
FirstGov 2021-Jul-30 02:35 UT
(server date/time)  
NASA Home Page
Site Manager:   Ryan S. Park
Webmaster  Alan B. Chamberlin